{"data":{"norad_id":48442,"intl_designator":"2021-040Q","name":"STARLINK-2644","alt_names":[],"object_type":"PAYLOAD","status":"ACTIVE","operator":null,"country":"US","launch_date":"2021-05-09","launch_site_code":"AFETR","launch_vehicle":null,"mission":null,"orbit_class":"UNKNOWN","rcs_meters":null,"size_class":null,"mass_kg":null,"dimensions":null,"purposes":["comms"],"wikipedia_slug":null,"has_3d_model":false,"image_url":null,"decayed_at":null,"tle_current":{"epoch":"2026-05-24T11:01:36.893856Z","epoch_age_seconds":121870,"freshness":"FRESH","line1":"1 48442U 21040Q   26144.45945479  .00036814  00000+0  85179-3 0  9997","line2":"2 48442  53.1597 185.2291 0001023  78.3100 281.8021 15.42145164278290","mean_motion":15.42145164,"eccentricity":0.0001023,"inclination_deg":53.1597,"raan_deg":185.2291,"arg_perigee_deg":78.31,"mean_anomaly_deg":281.8021,"bstar":0.00085179,"rev_number":27829,"period_min":93.376423544003,"perigee_km":439.08190773195,"apogee_km":440.47685342342,"semimajor_km":6817.9163805777,"source":"CELESTRAK","updated_at":"2026-05-25T13:38:16.716575Z"}}}